COSMOS 970 DEB, 64999

Orbit data source: Space-Track

COSMOS 970 DEB, 64999 is space debris in LEO originally from a launch on Wed, 21 Dec 1977 UTC launched from the Tyuratam Missile And Space Complex (TTMTR). Debris objects in space refer to the collection of defunct objects orbiting the Earth. Examples of debris include non-operational satellites, rocket bodies, and fragments generated from explosions, collisions, or faulty payload assembly.

Loading next visibility...
Identifier
64999, 1977-121DL
Orbit
LEO
Country
Flag of CISCIS
Related business
Manufacturer
Unknown
Mission
Spacecraft
Bus & Motor
Unknown
Mass
Unknown
Launch date (UTC)
1977-12-21 (48 years ago)
Launch vehicle
Unknown
Launch site
Tyuratam Missile And Space Complex (TTMTR)
Object type
Payload
Rocket body
Debris
Shape & HBR
Unknown shape, 0.1 m
Radar Cross Section
Small (<0.1 m²)

Expand to show TLE details & history
Last TLE update: 6 days ago

TLE from 6 days ago
0 COSMOS 970 DEB
1 64999U 77121DL  26166.03899260 -.00000011  00000-0  11987-3 0  9995
2 64999  65.7351 272.5453 0020463 192.6042 346.9529 13.37473359613365
Epoch: 2026-06-15T00:56Z
TLE epoch observation values (Epoch: 2026-06-15T00:56:08.960Z)
Latitude
0.35917°
Longitude
175.01578°
Altitude
1,105.658 km
Speed
7.307 km/s
True Right ascension
06h 09m 32s
True Declination
0° 21' 26"
Sunlit
Object was in daylight at epoch
Visualization orbit readout
Latitude
Unknown
Longitude
Unknown
Altitude
Unknown
Speed
Unknown
Apparent Right ascension
Unknown
Apparent Declination
Unknown
Sunlit
N/A
Visualization observer readout
Local Sidereal Time
07:17:44
Azimuth
Unknown
Elevation
Unknown
Doppler factor
Unknown
Orbital elements
Apogee altitude
1,132.599 km
Perigee altitude
1,101.924 km
Semi-major axis
7,495.399 km
Eccentricity
0.00205
Inclination
65.7351°
RAAN
272.5453°
Arg. of periapsis
192.6042°
True anomaly
346.89983°
Mean anomaly
346.9529°
Eccentric anomaly
346.92638°
Mean motion
3.34465 °/min
Orbital period
107.63 mins
BSTAR
0.00011987
Loading maneuver chart data...
Computing Atmospheric mass density...
Loading historical data...
Loading historical data...
Loading historical data...
Loading historical data...
Loading historical data...
Loading historical data...
Loading historical data...

Documentation

Showing up to 5 results
|